Weather Roundup
Issued by NWS Springfield, MO

Home | Current Version | Previous Version | Text Only | Print | Product List | Glossary On
Versions: 1 2 3 4 5 6 7 8 9 10 11 12 13 14 15 16 17 18 19 20 21 22 23 24 25 26 27 28 29 30 31 32 33 34 35 36 37 38 39 40 41 42 43 44 45 46 47 48 49 50
000
NZUS99 KSGF 222157
HRRSGF

HOURLY WEATHER
NATIONAL WEATHER SERVICE SPRINGFIELD MO
500 PM CDT MON MAY 22 2017

......SGF CWA......

CITY           SKY/WX    TMP DP  RH WIND       PRES   REMARKS
SPRINGFIELD    PTSUNNY   73  50  44 S7        29.97F
JOPLIN         MOSUNNY   75  55  49 SW13      29.96F
WEST PLAINS    SUNNY     73  49  42 VRB5      30.01F
ROLLA          CLOUDY    69  56  62 S6        29.98F
BRANSON        PTSUNNY   73  45  35 SE6       30.00F

......SURROUNDING SGF CWA......

CITY           SKY/WX    TMP DP  RH WIND       PRES   REMARKS
CHANUTE        CLOUDY    69  54  58 NW7       29.95F
PARSONS        CLOUDY    73  57  57 MISG      29.96F
COFFEYVILLE    CLOUDY    72  55  55 SW8       29.95F
EMPORIA        CLOUDY    67  53  61 S9        29.95F
HARRISON AR    CLOUDY    72  46  39 E9        29.99F

......KANSAS AND MISSOURI......

CITY           SKY/WX    TMP DP  RH WIND       PRES   REMARKS
KANSAS CTY INT CLOUDY    59  57  93 N6        29.98S
DOWNTOWN KC    TSTM      61  57  88 VRB6      29.98F
SEDALIA        CLOUDY    72  58  61 S8        29.97F
ST JOSEPH      LGT RAIN  60  57  89 CALM      29.97F
ST LOUIS       PTSUNNY   78  44  29 SW8       29.99F
WICHITA        LGT RAIN  62  58  86 W8        29.96F
TOPEKA         LGT RAIN  63  57  81 NW7       29.96F
OLATHE         CLOUDY    65  56  72 N13G21    29.96S

......TENNESSEE......

CITY           SKY/WX    TMP DP  RH WIND       PRES   REMARKS
MEMPHIS        NOT AVBL
NASHVILLE      PTSUNNY   73  51  46 NE8       30.01F

......ARKANSAS.......

CITY           SKY/WX    TMP DP  RH WIND       PRES   REMARKS
FAYETTEVILLE   SUNNY     74  50  42 S8        29.98F
FT SMITH       SUNNY     80  49  33 E7        29.94F
LITTLE ROCK    CLOUDY    68  54  60 SE7       29.99F

......OKLAHOMA.......

CITY           SKY/WX    TMP DP  RH WIND       PRES   REMARKS
TULSA          CLOUDY    74  54  49 SW7       29.95F
PONCA CITY     CLOUDY    69  50  50 SW8       29.97F
MCALESTER      PTSUNNY   76  59  55 W7        29.95F
OKLAHOMA CITY  LGT RAIN  64  58  80 SE7       29.96F

......IOWA............

CITY           SKY/WX    TMP DP  RH WIND       PRES   REMARKS
DES MOINES     NOT AVBL
QUAD CITIES    CLOUDY    66  54  65 SW14G25   29.90F

......ILLINOIS........

CITY           SKY/WX    TMP DP  RH WIND       PRES   REMARKS
QUINCY         NOT AVBL
CHICAGO        CLOUDY    71  40  32 SW18G25   29.89F




USA.gov is the U.S. government's official web portal to all federal, state and local government web resources and services.